sat.trackr.live / text

‹ back to catalog

STARLINK-32133

NORAD 60333 · 2024-136E

PAYLOAD ACTIVE UNKNOWN

§ Identity

Operator
Country
US
Launch date
2024-08-02
Launch site
AFETR
Launch vehicle
Mass (kg)
RCS (m²)

Purposes: comms

External: N2YO · Heavens-Above · Gunter

§ Orbital elements

Epoch: 2026-09-21T08:55:44.022720Z

Period
93.85 min
Inclination
53.1602°
Eccentricity
0.0001353
Mean motion
15.34391056 rev/d
Perigee alt
461.8 km
Apogee alt
463.7 km
Semi-major
6,840.9 km
B*
-5.1552e-6
RAAN
245.3829°
Arg perigee
74.7818°
Mean anomaly
285.3334°
Rev number
11,964

§ Raw data

STARLINK-321331 60333U 24136E   26264.37203730 -.00000550  00000+0 -51552-5 0  99902 60333  53.1602 245.3829 0001353  74.7818 285.3334 15.34391056119640

JSON: /api/v1/satellites/60333 · /tle

For live sub-satellite position, see the globe view (requires WebGL).

§ Visibility from observer

Set your observer location to see the next 7 days of passes ≥ 10°. The values pass through the URL so the page stays shareable.

No JS? Fill the form by hand. The geolocation button needs JavaScript.